Tracking 30995 objects as of 5-Jul-2025
HD Live streaming from Space Station
objects crossing your sky now

DELTA 1 DEB

Track DELTA 1 DEB now!
10-day predictions


NORAD ID: 10227
Int'l Code: 1977-065BE
Perigee: 567.7 km
Apogee: 1,578.9 km
Inclination: 29.0 °
Period: 106.5 minutes
Semi major axis: 7444 km
RCS: 0.265 m2 (medium)
Launch date: July 14, 1977
Source: United States (US)
Launch site: AIR FORCE EASTERN TEST RANGE (AFETR)

Note: This is SATELLITE DEBRIS
Your satellite tracking list
COSMOS 1856
Track 1 satellite(s)




NASA's NSSDC Master Catalog

Two Line Element Set (TLE):
1 10227U 77065BE  25186.57746385  .00002063  00000-0  66138-3 0  9992
2 10227  28.9560 304.5553 0679173 245.0360 107.8170 13.51665034327721
Source of the keplerian elements: AFSPC